KC8YVF-1 Weather Reports


Display with metric or nautical units.
time (UTC)temp
F
wind
direction
speed
MPH
gust
MPH
rain 1hr
in
rain 24hr
in
rain mn
in
humidity
%
barometer
mb
20260504050010 50 270 0.0 0.0 0.00 0.18 0.00 69 992.5
20260504045510 50 293 0.0 0.0 0.00 0.18 0.00 69 992.8
20260504045351 50 293 0.0 0.0 0.00 0.18 0.00 69 992.9
20260504045010 50 293 0.0 0.0 0.00 0.18 0.00 69 993.2
20260504044509 50 293 0.0 0.0 0.00 0.18 0.00 69 993.3
20260504044010 50 293 0.0 0.0 0.00 0.18 0.00 69 993.5
20260504043851 50 338 0.0 0.0 0.00 0.18 0.00 69 993.5
20260504043510 50 315 0.0 0.0 0.00 0.18 0.00 69 993.0
20260504043009 50 158 0.0 0.0 0.00 0.18 0.00 69 992.8
20260504042352 50 180 0.0 0.0 0.00 0.18 0.00 69 992.5
20260504042010 50 180 0.0 0.0 0.00 0.18 0.00 68 992.5
20260504041509 50 180 0.0 0.0 0.00 0.18 0.00 69 992.5
20260504041009 50 203 0.0 0.0 0.00 0.18 0.00 69 992.5
20260504040852 50 180 0.0 0.0 0.00 0.18 0.00 69 992.5
20260504040510 50 158 0.0 0.0 0.00 0.18 0.00 68 992.5
20260504040011 50 203 0.0 0.0 0.00 0.18 0.18 68 992.8
20260504035351 50 180 0.0 0.0 0.00 0.18 0.18 68 992.8
20260504035010 50 180 0.0 0.0 0.00 0.18 0.18 68 992.8
20260504034509 51 180 0.0 0.0 0.00 0.18 0.18 68 992.8
20260504033852 51 180 0.0 0.0 0.00 0.18 0.18 67 992.8
20260504033511 51 180 0.0 0.0 0.00 0.18 0.18 67 992.8
20260504033010 51 180 0.0 0.0 0.00 0.18 0.18 67 992.8
20260504032351 51 180 0.0 0.0 0.00 0.18 0.18 66 993.1
20260504032010 51 180 0.0 0.0 0.00 0.18 0.18 66 993.0
20260504031509 51 180 0.0 0.0 0.00 0.18 0.18 66 993.1
20260504031011 51 203 0.0 0.0 0.00 0.18 0.18 66 993.2
20260504030852 51 203 0.0 0.0 0.00 0.18 0.18 66 993.2
20260504030511 51 180 0.0 0.0 0.00 0.18 0.18 66 993.2
20260504025509 52 158 0.0 0.0 0.00 0.18 0.18 65 993.2
20260504025352 52 180 0.0 0.0 0.00 0.18 0.18 65 993.2
20260504025009 52 180 0.0 0.0 0.00 0.18 0.18 65 993.2
20260504024509 52 180 0.0 0.0 0.00 0.18 0.18 64 993.2
20260504024009 52 180 0.0 0.0 0.00 0.18 0.18 64 993.2
20260504023852 52 180 0.0 0.0 0.00 0.18 0.18 64 993.2
20260504023509 52 180 0.0 0.0 0.00 0.18 0.18 64 993.2
20260504023010 52 180 0.0 0.0 0.00 0.18 0.18 63 993.2
20260504022352 52 158 0.0 0.0 0.00 0.18 0.18 63 993.2
20260504022009 53 225 0.0 0.0 0.00 0.18 0.18 63 993.2
20260504021511 53 158 0.0 0.0 0.00 0.18 0.18 63 993.2
20260504020851 53 203 0.0 0.0 0.00 0.18 0.18 63 993.2
20260504020509 53 180 0.0 0.0 0.00 0.18 0.18 63 993.2
20260504020009 53 248 0.0 0.0 0.00 0.18 0.18 62 993.2
20260504015510 53 180 0.0 0.0 0.00 0.18 0.18 62 993.2
20260504015351 53 225 0.0 0.0 0.00 0.18 0.18 62 993.2
20260504015010 53 225 0.0 0.0 0.00 0.18 0.18 62 993.2
20260504014509 53 180 0.0 0.0 0.00 0.18 0.18 62 993.2
20260504014009 53 180 0.0 0.0 0.00 0.18 0.18 61 993.2
20260504013852 53 203 0.0 0.0 0.00 0.18 0.18 61 993.2
20260504013009 54 158 0.0 0.0 0.00 0.18 0.18 61 993.2
20260504012353 54 135 0.0 0.0 0.00 0.18 0.18 60 993.4
20260504011509 54 203 0.0 0.0 0.00 0.18 0.18 60 993.3
20260504011010 54 248 0.0 0.0 0.00 0.18 0.18 59 993.5
20260504010851 54 225 0.0 0.0 0.00 0.18 0.18 59 993.5
20260504010510 54 225 0.0 0.0 0.00 0.18 0.18 59 993.5
20260504010011 55 180 0.0 0.0 0.00 0.18 0.18 59 993.4
20260504005353 55 158 0.0 0.0 0.00 0.18 0.18 59 993.4
20260504005009 55 203 0.0 0.0 0.00 0.18 0.18 58 993.4
20260504004509 55 180 0.0 0.0 0.00 0.18 0.18 58 993.5
20260504004009 55 203 0.0 0.0 0.00 0.18 0.18 58 993.5
20260504003852 56 248 0.0 0.0 0.00 0.18 0.18 58 993.5
20260504003511 56 203 0.0 0.0 0.00 0.18 0.18 58 993.5
20260504003010 56 270 0.0 0.0 0.00 0.18 0.18 57 993.3
20260504002352 56 248 0.0 0.0 0.00 0.18 0.18 56 993.2
20260504002010 57 203 0.0 0.0 0.00 0.18 0.18 56 993.5
20260504001510 57 225 0.0 0.0 0.00 0.18 0.18 55 993.3
20260504001009 57 180 0.0 0.0 0.00 0.18 0.18 55 993.2
20260504000852 58 180 0.0 0.0 0.00 0.18 0.18 55 993.2
20260504000510 58 225 0.0 0.0 0.00 0.18 0.18 55 993.3
20260503235511 58 180 0.0 0.0 0.18 0.18 0.18 55 993.2
20260503235352 58 203 0.0 0.0 0.18 0.18 0.18 55 993.2
20260503235010 58 180 0.0 0.0 0.18 0.18 0.18 55 993.4
20260503234511 59 203 0.0 0.0 0.18 0.18 0.18 55 993.2
20260503234010 59 203 0.0 0.0 0.18 0.18 0.18 54 993.2
20260503233851 59 248 0.0 0.0 0.18 0.18 0.18 54 993.2
20260503233510 59 225 0.0 0.0 0.18 0.18 0.18 54 993.3
20260503233010 59 248 0.0 0.0 0.18 0.18 0.18 54 993.2
20260503232509 59 225 0.0 0.0 0.18 0.18 0.18 54 993.2
20260503232352 60 225 0.0 0.0 0.18 0.18 0.18 54 993.4
20260503231010 60 180 0.0 0.0 0.18 0.18 0.18 53 993.5
20260503230853 60 203 0.0 0.0 0.18 0.18 0.18 53 993.5
20260503230509 60 248 0.0 0.0 0.18 0.00 0.18 53 993.5
20260503225512 60 180 2.0 2.0 0.00 0.00 0.00 53 993.5
20260503225351 60 135 0.0 0.0 0.00 0.00 0.00 53 993.5
20260503224510 60 158 0.0 0.0 0.00 0.00 0.00 53 993.5
20260503224009 59 225 0.0 0.0 0.00 0.00 0.00 53 993.5
20260503223852 59 203 0.0 0.0 0.00 0.00 0.00 53 993.5
20260503223510 59 180 0.0 0.0 0.00 0.00 0.00 53 993.5
20260503222510 59 248 0.0 0.0 0.00 0.00 0.00 52 993.9
20260503222351 59 203 0.0 0.0 0.00 0.00 0.00 52 993.9
20260503222009 59 225 0.0 0.0 0.00 0.00 0.00 52 993.9
20260503221510 59 248 0.0 0.0 0.00 0.00 0.00 51 993.9
20260503221009 59 180 0.0 0.0 0.00 0.00 0.00 51 993.9
20260503220852 59 248 0.0 0.0 0.00 0.00 0.00 51 993.9
20260503220510 59 248 0.0 0.0 0.00 0.00 0.00 50 993.9
20260503215351 60 248 0.0 0.0 0.00 0.00 0.00 49 993.9
20260503215009 60 203 0.0 0.0 0.00 0.00 0.00 49 993.9
20260503214511 61 248 0.0 0.0 0.00 0.00 0.00 47 993.9
20260503213851 62 270 0.0 0.0 0.00 0.00 0.00 47 994.0
20260503213509 62 315 0.0 0.0 0.00 0.00 0.00 46 993.9
20260503213010 62 248 0.0 0.0 0.00 0.00 0.00 46 993.9
20260503212510 63 225 0.0 0.0 0.00 0.00 0.00 46 993.9
20260503212353 63 248 0.0 0.0 0.00 0.00 0.00 45 993.9
20260503212009 64 248 0.0 0.0 0.00 0.00 0.00 46 993.9
20260503211510 64 158 0.0 0.0 0.00 0.00 0.00 45 993.9
20260503211010 65 293 0.0 0.0 0.00 0.00 0.00 45 993.9
20260503210853 65 248 0.0 0.0 0.00 0.00 0.00 45 993.7
20260503210509 65 293 0.0 0.0 0.00 0.00 0.00 46 993.9
20260503205509 66 248 0.0 0.0 0.00 0.00 0.00 45 993.9
20260503205351 66 270 0.0 0.0 0.00 0.00 0.00 45 993.9
20260503205010 66 225 0.0 0.0 0.00 0.00 0.00 44 993.9
20260503204010 66 203 0.0 0.0 0.00 0.00 0.00 44 993.9
20260503203853 66 270 0.0 0.0 0.00 0.00 0.00 44 993.9
20260503203510 66 248 0.0 0.0 0.00 0.00 0.00 44 993.9
20260503203011 66 248 0.0 0.0 0.00 0.00 0.00 44 993.9
20260503202510 66 248 0.0 0.0 0.00 0.00 0.00 44 993.9
20260503202353 66 248 0.0 0.0 0.00 0.00 0.00 44 993.9
20260503202009 66 315 0.0 0.0 0.00 0.00 0.00 44 993.9
20260503201510 67 203 0.0 0.0 0.00 0.00 0.00 46 994.1
20260503201009 66 225 0.0 0.0 0.00 0.00 0.00 45 993.9
20260503200852 66 293 0.0 0.0 0.00 0.00 0.00 45 994.1
20260503200510 66 180 0.0 0.0 0.00 0.00 0.00 45 994.0
20260503200010 66 248 0.0 0.0 0.00 0.00 0.00 46 994.2
20260503195510 66 180 0.0 0.0 0.00 0.00 0.00 46 994.2
20260503195353 66 135 0.0 0.0 0.00 0.00 0.00 47 994.2
20260503195010 66 203 0.0 0.0 0.00 0.00 0.00 47 994.2
20260503194511 65 158 0.0 0.0 0.00 0.00 0.00 47 994.3
20260503194010 65 203 0.0 0.0 0.00 0.00 0.00 47 994.4
20260503193851 65 180 0.0 0.0 0.00 0.00 0.00 48 994.5
20260503193009 65 248 0.0 0.0 0.00 0.00 0.00 47 994.5
20260503192511 65 225 0.0 0.0 0.00 0.00 0.00 48 994.5
20260503192352 65 270 0.0 0.0 0.00 0.00 0.00 48 994.5
20260503192010 65 180 0.0 0.0 0.00 0.00 0.00 49 994.5
20260503191510 65 293 0.0 0.0 0.00 0.00 0.00 49 994.7
20260503191011 65 225 0.0 0.0 0.00 0.00 0.00 49 994.9
20260503190852 65 225 0.0 0.0 0.00 0.00 0.00 49 994.9
20260503190509 65 248 0.0 0.0 0.00 0.00 0.00 49 994.9
20260503190010 65 203 0.0 0.0 0.00 0.00 0.00 48 994.9
20260503185510 65 203 0.0 0.0 0.00 0.00 0.00 49 994.9
20260503185352 65 225 0.0 0.0 0.00 0.00 0.00 49 994.9
20260503185010 65 248 0.0 0.0 0.00 0.00 0.00 49 994.9
20260503184510 65 225 0.0 0.0 0.00 0.00 0.00 49 994.9
20260503184010 64 248 0.0 0.0 0.00 0.00 0.00 50 994.9
20260503183853 64 248 0.0 0.0 0.00 0.00 0.00 50 994.9
20260503183010 63 270 0.0 0.0 0.00 0.00 0.00 49 995.2
20260503182510 64 293 0.0 0.0 0.00 0.00 0.00 49 995.2
20260503182353 64 293 0.0 0.0 0.00 0.00 0.00 49 995.2
20260503181510 63 248 0.0 0.0 0.00 0.00 0.00 50 995.2
20260503181010 62 180 0.0 0.0 0.00 0.00 0.00 50 995.2
20260503180853 62 270 0.0 0.0 0.00 0.00 0.00 50 995.2
20260503180010 61 270 0.0 0.0 0.00 0.00 0.00 49 995.5
20260503175510 62 225 0.0 0.0 0.00 0.00 0.00 50 995.5
20260503175353 62 248 0.0 0.0 0.00 0.00 0.00 51 995.5
20260503175010 61 248 0.0 0.0 0.00 0.00 0.00 50 995.5
20260503174509 61 180 0.0 0.0 0.00 0.00 0.00 51 995.5
20260503173852 60 248 0.0 0.0 0.00 0.00 0.00 52 995.5
20260503173509 59 248 0.0 0.0 0.00 0.00 0.00 52 995.5
20260503173010 59 203 0.0 0.0 0.00 0.00 0.00 51 995.9
20260503172351 59 225 0.0 0.0 0.00 0.00 0.00 52 996.1
20260503172010 59 248 0.0 0.0 0.00 0.00 0.00 52 996.2
20260503171511 59 225 0.0 0.0 0.00 0.00 0.00 53 996.2
20260503170853 58 203 0.0 0.0 0.00 0.00 0.00 53 996.2
20260503170509 58 248 0.0 0.0 0.00 0.00 0.00 53 996.2
20260503150851 52 270 0.0 0.0 0.00 0.00 0.00 57 997.6
20260503150510 52 225 0.0 0.0 0.00 0.00 0.00 57 997.6
20260503131010 49 203 0.0 0.0 0.00 0.00 0.00 61 997.9
20260503130851 48 203 0.0 0.0 0.00 0.00 0.00 61 997.9
20260503110509 37 225 0.0 0.0 0.00 0.00 0.00 67 998.3
20260503090510 37 158 0.0 0.0 0.00 0.00 0.00 67 999.2
20260503081509 36 225 0.0 0.0 0.00 0.00 0.00 67 999.6
20260503081010 36 225 0.0 0.0 0.00 0.00 0.00 67 999.6
20260503080853 36 225 0.0 0.0 0.00 0.00 0.00 67 999.6
20260503072353 36 225 0.0 0.0 0.00 0.00 0.00 65 1000.0
20260503072010 36 225 0.0 0.0 0.00 0.00 0.00 65 1000.0
20260503071510 36 225 0.0 0.0 0.00 0.00 0.00 65 1000.0
20260503071010 36 225 0.0 0.0 0.00 0.00 0.00 65 1000.0
20260503070852 36 225 0.0 0.0 0.00 0.00 0.00 65 1000.0
20260503070511 36 225 0.0 0.0 0.00 0.00 0.00 65 1000.0